Regional Weather Roundup
Issued by NWS

Home | Current Version | Previous Version | Text Only | Print | Product List | Glossary On
Versions: 1 2 3 4 5 6 7 8 9 10 11 12 13 14 15 16 17 18 19 20 21 22 23 24 25 26 27 28 29 30 31 32 33 34 35 36 37 38 39 40 41 42 43 44 45 46 47 48 49 50
000
ASUS43 KFSD 220510
RWRSD

WEATHER ROUNDUP FOR SOUTH DAKOTA
NATIONAL WEATHER SERVICE SIOUX FALLS SD
1100 PM CST FRI NOV 21 2014

NOTE: "FAIR" INDICATES FEW OR NO CLOUDS BELOW 12,000 FEET WITH NO
SIGNIFICANT WEATHER AND/OR OBSTRUCTIONS TO VISIBILITY.


SDZ001>005-009-010-012>017-220600-
NORTHWEST AND NORTH CENTRAL SOUTH DAKOTA

CITY           SKY/WX    TMP DP  RH WIND       PRES   REMARKS
BUFFALO          N/A     33  25  72 W8        29.67F WCI  26
FAITH            N/A     34  25  69 SW10      29.77F WCI  26
MOBRIDGE       PTCLDY    33  27  78 SE6       29.73F WCI  28
$$

SDZ012>016-024>037-041>051-057-063-072>074-220600-
SOUTHWEST AND SOUTH CENTRAL SOUTH DAKOTA

CITY           SKY/WX    TMP DP  RH WIND       PRES   REMARKS
RAPID CTY ARPT CLEAR     35  22  58 S6        29.80F
PIERRE         CLEAR     32  27  81 SW8       29.79F WCI  25
CUSTER         CLEAR     25  19  78 W3        29.81F
ELLSWORTH AFB  CLEAR     35  23  60 SW6       29.79F
PHILIP         CLEAR     33  25  72 W9        29.81F WCI  25
PINE RIDGE     CLEAR     19  17  92 E3        29.84F
SPEARFISH      FAIR      36  21  55 SW7       29.78F
WINNER         FAIR      41  29  62 SW8       29.82F
$$

SDZ004>011-016>023-039-040-220600-
NORTHEAST SOUTH DAKOTA

CITY           SKY/WX    TMP DP  RH WIND       PRES   REMARKS
ABERDEEN       PTCLDY    24  20  84 S7        29.76F WCI  16
WATERTOWN      PTCLDY    32  28  85 S8        29.78F WCI  25
SISSETON         N/A     38  30  73 W18       29.70S
$$

SDZ017-020-022-023-036>040-048>070-220600-
SOUTHEAST SOUTH DAKOTA

CITY           SKY/WX    TMP DP  RH WIND       PRES   REMARKS
SIOUX FALLS    CLOUDY    35  29  78 S12       29.86F WCI  27
HURON          PTCLDY    31  28  89 S5        29.81F WCI  26
CHAMBERLAIN    CLEAR     28  25  91 W3        29.82F
MITCHELL       PTCLDY    32  30  92 CALM      29.84S
YANKTON        CLOUDY    39  28  65 S12G17    29.89S
$$

ABBREVIATIONS USED IN REMARKS
   TC - TEMPERATURE IN CELSIUS
  WCI - WIND CHILL INDEX
   HX - HEAT INDEX
  VSB - VISIBILITY



USA.gov is the U.S. government's official web portal to all federal, state and local government web resources and services.